FENGYUN 1C DEB, 29896

Orbit data source: Space-Track

FENGYUN 1C DEB, 29896 is space debris in SSO originally from a launch on Mon, 10 May 1999 UTC launched from the Taiyaun Space Center, China (TSC). Fengyun 1C debris stems from the Chinese weather satellite Fengyun-1C, which was intentionally destroyed by a Chinese anti-satellite missile in 2007. This event dramatically increased the amount of space debris, with thousands of trackable fragments posing hazards to satellites and human spaceflight. The Fengyun 1C debris cloud has become a focal point in discussions about space sustainability and the need for international regulations to prevent the creation of new debris.

Loading next visibility...
Identifier
29896, 1999-025GS
Orbit
SSO
Country
Flag of CNCN / PRC
Related business
Manufacturer
Unknown
Mission
Spacecraft
Bus & Motor
Unknown
Mass
Unknown
Launch date (UTC)
1999-05-10 (27 years ago)
Launch vehicle
Unknown
Launch site
Taiyaun Space Center, China (TSC)
Object type
Payload
Rocket body
Debris
Shape & HBR
Unknown shape, 0.1 m
Radar Cross Section
Small (<0.1 m²)

Expand to show TLE details & history
Last TLE update: 2 days ago

TLE from 2 days ago
0 FENGYUN 1C DEB
1 29896U 99025GS  26036.67514015  .00000720  00000-0  77050-3 0  9996
2 29896  99.4200 291.8802 0239724 320.9223  64.8478 13.65454411947920
Epoch: 2026-02-05T16:12Z
TLE epoch observation values (Epoch: 2026-02-05T16:12:12.108Z)
Latitude
27.91551°
Longitude
-92.01066°
Altitude
947.465 km
Speed
7.416 km/s
True Right ascension
19h 07m 27s
True Declination
27° 46' 38"
Sunlit
Object was in daylight at epoch
Visualization orbit readout
Latitude
Unknown
Longitude
Unknown
Altitude
Unknown
Speed
Unknown
Apparent Right ascension
Unknown
Apparent Declination
Unknown
Sunlit
N/A
Visualization observer readout
Local Sidereal Time
10:05:21
Azimuth
Unknown
Elevation
Unknown
Doppler factor
Unknown
Orbital elements
Apogee altitude
1,190.388 km
Perigee altitude
836.012 km
Semi-major axis
7,391.337 km
Eccentricity
0.02397
Inclination
99.42°
RAAN
291.8802°
Arg. of periapsis
320.9223°
True anomaly
67.36562°
Mean anomaly
64.8478°
Eccentric anomaly
66.10358°
Mean motion
3.41553 °/min
Orbital period
105.4 mins
BSTAR
0.0007705
Loading maneuver chart data...
Computing Atmospheric mass density...

Documentation

Showing up to 5 results
|